TimeAKDT,TemperatureF,Dew PointF,Humidity,Sea Level PressureIn,VisibilityMPH,Wind Direction,Wind SpeedMPH,Gust SpeedMPH,PrecipitationIn,Events,Conditions,WindDirDegrees,DateUTC
12:56 AM,37.4,35.6,93,29.79,10.0,NNE,16.1,-,N/A,,Overcast,20,2013-08-19 08:56:00
1:06 AM,37.4,35.6,93,29.79,10.0,NNE,16.1,-,N/A,,Overcast,30,2013-08-19 09:06:00
1:56 AM,37.9,34.9,89,29.81,10.0,NNE,15.0,-,N/A,,Overcast,30,2013-08-19 09:56:00
2:56 AM,38.8,34.0,83,29.83,10.0,NNE,16.1,-,N/A,,Overcast,30,2013-08-19 10:56:00
3:56 AM,37.9,34.0,86,29.83,10.0,NNE,13.8,-,N/A,,Overcast,20,2013-08-19 11:56:00
4:56 AM,36.9,34.9,93,29.85,10.0,NNE,12.7,-,N/A,,Overcast,30,2013-08-19 12:56:00
5:56 AM,37.9,34.0,86,29.86,10.0,NE,17.3,-,N/A,,Overcast,40,2013-08-19 13:56:00
6:17 AM,37.4,33.8,87,29.85,10.0,NE,17.3,-,N/A,,Overcast,40,2013-08-19 14:17:00
6:43 AM,35.6,33.8,93,29.86,10.0,NNE,13.8,-,N/A,,Mostly Cloudy,30,2013-08-19 14:43:00
6:56 AM,35.6,33.8,93,29.86,10.0,NE,13.8,-,N/A,,Mostly Cloudy,40,2013-08-19 14:56:00
7:56 AM,36.0,32.9,89,29.88,10.0,NNE,13.8,-,N/A,,Partly Cloudy,30,2013-08-19 15:56:00
8:56 AM,36.9,32.9,86,29.89,10.0,NNE,16.1,-,N/A,,Clear,30,2013-08-19 16:56:00
9:56 AM,37.9,32.9,82,29.90,10.0,NE,16.1,-,N/A,,Scattered Clouds,50,2013-08-19 17:56:00
10:56 AM,37.9,32.9,82,29.91,10.0,NE,17.3,-,N/A,,Scattered Clouds,50,2013-08-19 18:56:00
11:16 AM,39.2,33.8,81,29.89,10.0,NE,17.3,-,N/A,,Mostly Cloudy,40,2013-08-19 19:16:00
11:56 AM,38.8,34.0,83,29.91,10.0,NE,15.0,-,N/A,,Overcast,50,2013-08-19 19:56:00
12:56 PM,39.9,34.0,79,29.92,10.0,NE,17.3,23.0,N/A,,Overcast,40,2013-08-19 20:56:00
1:56 PM,39.9,34.0,79,29.92,10.0,NE,17.3,24.2,N/A,,Overcast,40,2013-08-19 21:56:00
2:56 PM,41.9,34.0,73,29.92,10.0,NE,19.6,-,N/A,,Mostly Cloudy,40,2013-08-19 22:56:00
3:56 PM,43.0,34.9,73,29.92,10.0,NNE,18.4,-,N/A,,Mostly Cloudy,30,2013-08-19 23:56:00
4:56 PM,43.0,34.0,71,29.92,10.0,NNE,18.4,-,N/A,,Overcast,30,2013-08-20 00:56:00
5:56 PM,41.9,34.9,76,29.93,10.0,NNE,19.6,-,N/A,,Overcast,30,2013-08-20 01:56:00
6:56 PM,41.9,36.0,79,29.93,10.0,NNE,20.7,25.3,N/A,,Overcast,30,2013-08-20 02:56:00
7:56 PM,41.0,34.9,79,29.93,10.0,NE,17.3,-,N/A,,Overcast,40,2013-08-20 03:56:00
8:56 PM,41.0,34.9,79,29.94,10.0,NE,18.4,-,N/A,,Overcast,40,2013-08-20 04:56:00
9:56 PM,39.9,34.0,79,29.94,10.0,NE,17.3,-,N/A,,Overcast,50,2013-08-20 05:56:00
10:56 PM,37.9,34.0,86,29.94,10.0,NE,16.1,-,N/A,,Overcast,50,2013-08-20 06:56:00
11:56 PM,36.9,32.9,86,29.95,10.0,ENE,15.0,-,N/A,,Overcast,60,2013-08-20 07:56:00